Time,TemperatureF,DewpointF,PressureIn,WindDirection,WindDirectionDegrees,WindSpeedMPH,WindSpeedGustMPH,Humidity,HourlyPrecipIn,Conditions,Clouds,dailyrainin,SoftwareType,DateUTC
2013-05-14 00:01:00,77.0,67.0,30.06,North,360,12.0,15.0,71,0.00,,,0.00,Rainwise IP-100,2013-05-14 04:01:00,
2013-05-14 00:06:00,77.0,66.3,30.06,NW,315,8.0,15.0,69,0.00,,,0.00,Rainwise IP-100,2013-05-14 04:06:00,
2013-05-14 00:11:00,77.0,66.7,30.06,NNW,337,6.0,14.0,70,0.00,,,0.00,Rainwise IP-100,2013-05-14 04:11:00,
2013-05-14 00:16:00,77.0,66.7,30.06,North,360,9.0,13.0,70,0.00,,,0.00,Rainwise IP-100,2013-05-14 04:16:00,
2013-05-14 00:21:00,77.0,66.7,30.06,NNE,22,10.0,13.0,70,0.00,,,0.00,Rainwise IP-100,2013-05-14 04:21:00,
2013-05-14 00:26:00,77.0,67.0,30.06,NNW,337,12.0,13.0,71,0.00,,,0.00,Rainwise IP-100,2013-05-14 04:26:00,
2013-05-14 00:31:00,77.0,66.3,30.06,North,360,8.0,13.0,69,0.00,,,0.00,Rainwise IP-100,2013-05-14 04:31:00,
2013-05-14 00:37:00,77.0,66.3,30.06,NE,45,10.0,12.0,69,0.00,,,0.00,Rainwise IP-100,2013-05-14 04:37:00,
2013-05-14 00:42:00,77.0,66.3,30.06,North,360,4.0,11.0,69,0.00,,,0.00,Rainwise IP-100,2013-05-14 04:42:00,
2013-05-14 00:47:00,77.0,66.3,30.06,North,360,7.0,16.0,69,0.00,,,0.00,Rainwise IP-100,2013-05-14 04:47:00,
2013-05-14 00:52:00,77.0,66.3,30.06,NE,45,12.0,13.0,69,0.00,,,0.00,Rainwise IP-100,2013-05-14 04:52:00,
2013-05-14 00:57:00,77.0,66.3,30.05,North,360,7.0,12.0,69,0.00,,,0.00,Rainwise IP-100,2013-05-14 04:57:00,
2013-05-14 01:02:00,77.0,65.5,30.05,North,360,7.0,13.0,67,0.00,,,0.00,Rainwise IP-100,2013-05-14 05:02:00,
2013-05-14 01:07:00,77.0,65.0,30.05,North,360,7.0,15.0,66,0.00,,,0.00,Rainwise IP-100,2013-05-14 05:07:00,
2013-05-14 01:12:00,77.0,65.5,30.05,North,360,8.0,12.0,67,0.00,,,0.00,Rainwise IP-100,2013-05-14 05:12:00,
2013-05-14 01:17:00,77.0,65.5,30.05,NE,45,10.0,12.0,67,0.00,,,0.00,Rainwise IP-100,2013-05-14 05:17:00,
2013-05-14 01:23:00,77.0,66.3,30.05,North,360,9.0,12.0,69,0.00,,,0.00,Rainwise IP-100,2013-05-14 05:23:00,
2013-05-14 01:28:00,77.0,65.5,30.04,North,360,10.0,13.0,67,0.00,,,0.00,Rainwise IP-100,2013-05-14 05:28:00,
2013-05-14 01:33:00,77.0,66.3,30.04,North,360,7.0,12.0,69,0.00,,,0.00,Rainwise IP-100,2013-05-14 05:33:00,
2013-05-14 01:38:00,77.0,66.0,30.04,NW,315,9.0,11.0,68,0.00,,,0.00,Rainwise IP-100,2013-05-14 05:38:00,
2013-05-14 01:43:00,77.0,66.0,30.04,NNE,22,6.0,13.0,68,0.00,,,0.00,Rainwise IP-100,2013-05-14 05:43:00,
2013-05-14 01:48:00,77.0,66.3,30.04,North,360,9.0,11.0,69,0.00,,,0.00,Rainwise IP-100,2013-05-14 05:48:00,
2013-05-14 01:53:00,77.0,66.3,30.04,ENE,67,12.0,13.0,69,0.00,,,0.00,Rainwise IP-100,2013-05-14 05:53:00,
2013-05-14 01:59:00,77.0,66.0,30.04,North,360,8.0,16.0,68,0.00,,,0.00,Rainwise IP-100,2013-05-14 05:59:00,
2013-05-14 02:04:00,77.0,65.5,30.04,North,360,10.0,14.0,67,0.00,,,0.00,Rainwise IP-100,2013-05-14 06:04:00,
2013-05-14 02:09:00,77.0,65.5,30.04,North,360,4.0,13.0,67,0.00,,,0.00,Rainwise IP-100,2013-05-14 06:09:00,
2013-05-14 02:14:00,77.0,65.5,30.04,North,360,7.0,15.0,67,0.00,,,0.00,Rainwise IP-100,2013-05-14 06:14:00,
2013-05-14 02:19:00,77.0,65.5,30.04,NE,45,9.0,12.0,67,0.00,,,0.00,Rainwise IP-100,2013-05-14 06:19:00,
2013-05-14 02:24:00,77.0,66.3,30.04,North,360,9.0,16.0,69,0.00,,,0.00,Rainwise IP-100,2013-05-14 06:24:00,
2013-05-14 02:29:00,77.0,66.0,30.04,NNE,22,8.0,16.0,68,0.00,,,0.00,Rainwise IP-100,2013-05-14 06:29:00,
2013-05-14 02:34:00,77.0,65.5,30.04,North,360,10.0,13.0,67,0.00,,,0.00,Rainwise IP-100,2013-05-14 06:34:00,
2013-05-14 02:40:00,77.0,65.5,30.04,NE,45,10.0,17.0,67,0.00,,,0.00,Rainwise IP-100,2013-05-14 06:40:00,
2013-05-14 02:45:00,77.0,66.0,30.04,NE,45,10.0,16.0,68,0.00,,,0.00,Rainwise IP-100,2013-05-14 06:45:00,
2013-05-14 02:50:00,77.0,66.0,30.04,NE,45,14.0,14.0,68,0.00,,,0.00,Rainwise IP-100,2013-05-14 06:50:00,
2013-05-14 02:55:00,77.0,66.3,30.04,NE,45,9.0,15.0,69,0.00,,,0.00,Rainwise IP-100,2013-05-14 06:55:00,
2013-05-14 03:00:00,77.0,66.3,30.04,NNE,22,15.0,15.0,69,0.00,,,0.00,Rainwise IP-100,2013-05-14 07:00:00,
2013-05-14 03:05:00,76.0,65.0,30.04,NE,45,11.0,16.0,69,0.00,,,0.00,Rainwise IP-100,2013-05-14 07:05:00,
2013-05-14 03:10:00,76.0,64.5,30.03,NE,45,15.0,16.0,68,0.00,,,0.00,Rainwise IP-100,2013-05-14 07:10:00,
2013-05-14 03:16:00,76.0,65.0,30.04,North,360,9.0,16.0,69,0.00,,,0.00,Rainwise IP-100,2013-05-14 07:16:00,
2013-05-14 03:21:00,76.0,64.5,30.04,NE,45,10.0,16.0,68,0.00,,,0.00,Rainwise IP-100,2013-05-14 07:21:00,
2013-05-14 03:26:00,76.0,64.5,30.04,North,360,12.0,13.0,68,0.00,,,0.00,Rainwise IP-100,2013-05-14 07:26:00,
2013-05-14 03:31:00,76.0,65.0,30.04,North,360,7.0,14.0,69,0.00,,,0.00,Rainwise IP-100,2013-05-14 07:31:00,
2013-05-14 03:36:00,76.0,65.0,30.04,North,360,9.0,15.0,69,0.00,,,0.00,Rainwise IP-100,2013-05-14 07:36:00,
2013-05-14 03:41:00,76.0,65.0,30.04,NW,315,14.0,16.0,69,0.00,,,0.00,Rainwise IP-100,2013-05-14 07:41:00,
2013-05-14 03:46:00,76.0,65.0,30.04,NE,45,12.0,16.0,69,0.00,,,0.00,Rainwise IP-100,2013-05-14 07:46:00,
2013-05-14 03:51:00,76.0,66.0,30.04,North,360,9.0,20.0,71,0.00,,,0.00,Rainwise IP-100,2013-05-14 07:51:00,
2013-05-14 03:57:00,76.0,65.5,30.04,North,360,7.0,17.0,70,0.00,,,0.00,Rainwise IP-100,2013-05-14 07:57:00,
2013-05-14 04:02:00,76.0,65.0,30.03,NE,45,15.0,16.0,69,0.00,,,0.00,Rainwise IP-100,2013-05-14 08:02:00,
2013-05-14 04:07:00,76.0,64.5,30.04,NE,45,13.0,18.0,68,0.00,,,0.00,Rainwise IP-100,2013-05-14 08:07:00,
2013-05-14 04:12:00,76.0,64.5,30.04,NNW,337,15.0,21.0,68,0.00,,,0.00,Rainwise IP-100,2013-05-14 08:12:00,
2013-05-14 04:17:00,76.0,64.0,30.04,NE,45,12.0,17.0,67,0.00,,,0.00,Rainwise IP-100,2013-05-14 08:17:00,
2013-05-14 04:22:00,76.0,64.0,30.04,NE,45,6.0,17.0,67,0.00,,,0.00,Rainwise IP-100,2013-05-14 08:22:00,
2013-05-14 04:27:00,76.0,63.5,30.04,North,360,7.0,19.0,66,0.00,,,0.00,Rainwise IP-100,2013-05-14 08:27:00,
2013-05-14 04:33:00,76.0,64.0,30.04,North,360,9.0,15.0,67,0.00,,,0.00,Rainwise IP-100,2013-05-14 08:33:00,
2013-05-14 04:38:00,76.0,64.0,30.04,NNW,337,11.0,23.0,67,0.00,,,0.00,Rainwise IP-100,2013-05-14 08:38:00,
2013-05-14 04:43:00,76.0,63.5,30.04,North,360,10.0,17.0,65,0.00,,,0.00,Rainwise IP-100,2013-05-14 08:43:00,
2013-05-14 04:48:00,76.0,63.5,30.04,NW,315,9.0,19.0,66,0.00,,,0.00,Rainwise IP-100,2013-05-14 08:48:00,
2013-05-14 04:53:00,76.0,63.5,30.04,North,360,15.0,17.0,66,0.00,,,0.00,Rainwise IP-100,2013-05-14 08:53:00,
2013-05-14 04:58:00,76.0,63.5,30.04,NNE,22,7.0,19.0,66,0.00,,,0.00,Rainwise IP-100,2013-05-14 08:58:00,
2013-05-14 05:03:00,75.0,62.5,30.04,NE,45,12.0,16.0,65,0.00,,,0.00,Rainwise IP-100,2013-05-14 09:03:00,
2013-05-14 05:08:00,75.0,62.0,30.05,North,360,11.0,18.0,64,0.00,,,0.00,Rainwise IP-100,2013-05-14 09:08:00,
2013-05-14 05:14:00,75.0,62.0,30.05,North,360,7.0,16.0,64,0.00,,,0.00,Rainwise IP-100,2013-05-14 09:14:00,
2013-05-14 05:19:00,75.0,62.0,30.05,North,360,11.0,20.0,64,0.00,,,0.00,Rainwise IP-100,2013-05-14 09:19:00,
2013-05-14 05:24:00,75.0,61.5,30.05,North,360,7.0,17.0,63,0.00,,,0.00,Rainwise IP-100,2013-05-14 09:24:00,
2013-05-14 05:29:00,75.0,61.5,30.05,North,360,19.0,19.0,63,0.00,,,0.00,Rainwise IP-100,2013-05-14 09:29:00,
2013-05-14 05:34:00,75.0,61.5,30.05,North,360,10.0,19.0,63,0.00,,,0.00,Rainwise IP-100,2013-05-14 09:34:00,
2013-05-14 05:39:00,75.0,62.5,30.05,North,360,17.0,19.0,65,0.00,,,0.00,Rainwise IP-100,2013-05-14 09:39:00,
2013-05-14 05:44:00,75.0,61.5,30.06,NNW,337,12.0,20.0,63,0.00,,,0.00,Rainwise IP-100,2013-05-14 09:44:00,
2013-05-14 05:50:00,75.0,61.5,30.06,NW,315,9.0,16.0,63,0.00,,,0.00,Rainwise IP-100,2013-05-14 09:50:00,
2013-05-14 05:55:00,75.0,62.0,30.05,NE,45,12.0,16.0,64,0.00,,,0.00,Rainwise IP-100,2013-05-14 09:55:00,
2013-05-14 06:00:00,75.0,61.5,30.06,NE,45,12.0,17.0,63,0.00,,,0.00,Rainwise IP-100,2013-05-14 10:00:00,
2013-05-14 06:05:00,75.0,61.5,30.06,North,360,12.0,16.0,63,0.00,,,0.00,Rainwise IP-100,2013-05-14 10:05:00,
2013-05-14 06:10:00,75.0,61.0,30.06,North,360,11.0,20.0,61,0.00,,,0.00,Rainwise IP-100,2013-05-14 10:10:00,
2013-05-14 06:15:00,75.0,61.0,30.06,NE,45,13.0,18.0,61,0.00,,,0.00,Rainwise IP-100,2013-05-14 10:15:00,
2013-05-14 06:20:00,75.0,61.0,30.06,North,360,8.0,16.0,61,0.00,,,0.00,Rainwise IP-100,2013-05-14 10:20:00,
2013-05-14 06:25:00,75.0,61.5,30.06,NNW,337,8.0,16.0,62,0.00,,,0.00,Rainwise IP-100,2013-05-14 10:25:00,
2013-05-14 06:31:00,75.0,61.0,30.06,NE,45,12.0,16.0,61,0.00,,,0.00,Rainwise IP-100,2013-05-14 10:31:00,
2013-05-14 06:36:00,75.0,62.5,30.06,NE,45,12.0,15.0,65,0.00,,,0.00,Rainwise IP-100,2013-05-14 10:36:00,
2013-05-14 06:41:00,75.0,61.5,30.07,NE,45,9.0,16.0,62,0.00,,,0.00,Rainwise IP-100,2013-05-14 10:41:00,
2013-05-14 06:46:00,75.0,61.0,30.07,NE,45,9.0,14.0,61,0.00,,,0.00,Rainwise IP-100,2013-05-14 10:46:00,
2013-05-14 06:51:00,75.0,60.5,30.07,NNW,337,7.0,17.0,60,0.00,,,0.00,Rainwise IP-100,2013-05-14 10:51:00,
2013-05-14 06:56:00,75.0,61.5,30.07,NE,45,11.0,19.0,62,0.00,,,0.00,Rainwise IP-100,2013-05-14 10:56:00,
2013-05-14 07:01:00,75.0,61.0,30.07,NE,45,12.0,17.0,61,0.00,,,0.00,Rainwise IP-100,2013-05-14 11:01:00,
2013-05-14 07:07:00,75.0,61.0,30.07,North,360,9.0,15.0,61,0.00,,,0.00,Rainwise IP-100,2013-05-14 11:07:00,
2013-05-14 07:12:00,75.0,61.0,30.07,North,360,15.0,22.0,61,0.00,,,0.00,Rainwise IP-100,2013-05-14 11:12:00,
2013-05-14 07:17:00,75.0,60.5,30.07,North,360,10.0,17.0,60,0.00,,,0.00,Rainwise IP-100,2013-05-14 11:17:00,
2013-05-14 07:22:00,75.0,60.5,30.08,North,360,6.0,15.0,60,0.00,,,0.00,Rainwise IP-100,2013-05-14 11:22:00,
2013-05-14 07:27:00,75.0,60.5,30.08,North,360,9.0,16.0,60,0.00,,,0.00,Rainwise IP-100,2013-05-14 11:27:00,
2013-05-14 07:33:00,75.0,60.5,30.08,NNW,337,11.0,19.0,60,0.00,,,0.00,Rainwise IP-100,2013-05-14 11:33:00,
2013-05-14 07:36:00,76.0,62.0,30.09,North,360,13.0,17.0,62,0.00,,,0.00,Rainwise IP-100,2013-05-14 11:36:00,
2013-05-14 07:41:00,76.0,61.0,30.09,NNE,22,10.0,17.0,60,0.00,,,0.00,Rainwise IP-100,2013-05-14 11:41:00,
2013-05-14 07:46:00,76.0,60.5,30.09,North,360,9.0,16.0,59,0.00,,,0.00,Rainwise IP-100,2013-05-14 11:46:00,
2013-05-14 07:51:00,76.0,59.5,30.09,NE,45,9.0,20.0,57,0.00,,,0.00,Rainwise IP-100,2013-05-14 11:51:00,
2013-05-14 07:52:00,76.0,59.5,30.09,North,360,13.0,20.0,57,0.00,,,0.00,Rainwise IP-100,2013-05-14 11:52:00,
2013-05-14 07:57:00,76.0,60.0,30.09,NNW,337,9.0,17.0,58,0.00,,,0.00,Rainwise IP-100,2013-05-14 11:57:00,
2013-05-14 08:03:00,76.0,60.0,30.10,North,360,10.0,17.0,58,0.00,,,0.00,Rainwise IP-100,2013-05-14 12:03:00,
2013-05-14 08:08:00,76.0,60.0,30.10,NE,45,20.0,20.0,58,0.00,,,0.00,Rainwise IP-100,2013-05-14 12:08:00,
2013-05-14 08:13:00,76.0,60.0,30.10,North,360,16.0,19.0,58,0.00,,,0.00,Rainwise IP-100,2013-05-14 12:13:00,
2013-05-14 08:18:00,77.0,60.0,30.10,NE,45,8.0,16.0,55,0.00,,,0.00,Rainwise IP-100,2013-05-14 12:18:00,
2013-05-14 08:23:00,77.0,60.0,30.10,NE,45,10.0,20.0,55,0.00,,,0.00,Rainwise IP-100,2013-05-14 12:23:00,
2013-05-14 08:28:00,77.0,60.0,30.10,NE,45,13.0,23.0,55,0.00,,,0.00,Rainwise IP-100,2013-05-14 12:28:00,
2013-05-14 08:33:00,77.0,60.0,30.10,NNE,22,11.0,21.0,55,0.00,,,0.00,Rainwise IP-100,2013-05-14 12:33:00,
2013-05-14 08:38:00,78.0,60.5,30.11,NE,45,11.0,18.0,55,0.00,,,0.00,Rainwise IP-100,2013-05-14 12:38:00,
2013-05-14 08:44:00,78.0,59.5,30.11,North,360,15.0,19.0,53,0.00,,,0.00,Rainwise IP-100,2013-05-14 12:44:00,
2013-05-14 08:49:00,78.0,59.5,30.11,NE,45,12.0,16.0,53,0.00,,,0.00,Rainwise IP-100,2013-05-14 12:49:00,
2013-05-14 08:54:00,78.0,60.5,30.12,North,360,10.0,16.0,55,0.00,,,0.00,Rainwise IP-100,2013-05-14 12:54:00,
2013-05-14 08:59:00,78.0,59.5,30.12,North,360,10.0,19.0,53,0.00,,,0.00,Rainwise IP-100,2013-05-14 12:59:00,
2013-05-14 09:04:00,78.0,60.5,30.12,NE,45,9.0,17.0,55,0.00,,,0.00,Rainwise IP-100,2013-05-14 13:04:00,
2013-05-14 09:09:00,78.0,59.5,30.12,NE,45,14.0,18.0,53,0.00,,,0.00,Rainwise IP-100,2013-05-14 13:09:00,
2013-05-14 09:14:00,78.0,58.0,30.12,NNE,22,7.0,20.0,51,0.00,,,0.00,Rainwise IP-100,2013-05-14 13:14:00,
2013-05-14 09:20:00,78.0,59.5,30.12,NW,315,9.0,19.0,53,0.00,,,0.00,Rainwise IP-100,2013-05-14 13:20:00,
2013-05-14 09:25:00,77.0,59.0,30.13,North,360,9.0,17.0,53,0.00,,,0.00,Rainwise IP-100,2013-05-14 13:25:00,
2013-05-14 09:30:00,78.0,60.0,30.12,NE,45,12.0,17.0,54,0.00,,,0.00,Rainwise IP-100,2013-05-14 13:30:00,
2013-05-14 09:35:00,78.0,59.5,30.13,NNE,22,12.0,17.0,53,0.00,,,0.00,Rainwise IP-100,2013-05-14 13:35:00,
2013-05-14 09:40:00,78.0,58.0,30.13,North,360,9.0,17.0,51,0.00,,,0.00,Rainwise IP-100,2013-05-14 13:40:00,
2013-05-14 09:45:00,78.0,60.0,30.13,North,360,10.0,16.0,54,0.00,,,0.00,Rainwise IP-100,2013-05-14 13:45:00,
2013-05-14 09:50:00,79.0,60.5,30.13,North,360,6.0,17.0,53,0.00,,,0.00,Rainwise IP-100,2013-05-14 13:50:00,
2013-05-14 09:55:00,79.0,60.5,30.13,North,360,15.0,19.0,53,0.00,,,0.00,Rainwise IP-100,2013-05-14 13:55:00,
2013-05-14 10:01:00,78.0,59.0,30.14,NNE,22,10.0,17.0,52,0.00,,,0.00,Rainwise IP-100,2013-05-14 14:01:00,
2013-05-14 10:06:00,78.0,58.0,30.14,North,360,12.0,20.0,51,0.00,,,0.00,Rainwise IP-100,2013-05-14 14:06:00,
2013-05-14 10:11:00,78.0,59.0,30.14,North,360,18.0,19.0,52,0.00,,,0.00,Rainwise IP-100,2013-05-14 14:11:00,
2013-05-14 10:16:00,78.0,58.0,30.14,NE,45,8.0,21.0,51,0.00,,,0.00,Rainwise IP-100,2013-05-14 14:16:00,
2013-05-14 10:21:00,79.0,59.5,30.14,NE,45,10.0,16.0,51,0.00,,,0.00,Rainwise IP-100,2013-05-14 14:21:00,
2013-05-14 10:26:00,78.0,58.0,30.14,NE,45,12.0,19.0,51,0.00,,,0.00,Rainwise IP-100,2013-05-14 14:26:00,
2013-05-14 10:31:00,78.0,58.0,30.14,NNW,337,13.0,22.0,50,0.00,,,0.00,Rainwise IP-100,2013-05-14 14:31:00,
2013-05-14 10:37:00,78.0,58.0,30.14,North,360,10.0,20.0,50,0.00,,,0.00,Rainwise IP-100,2013-05-14 14:37:00,
2013-05-14 10:42:00,78.0,58.0,30.15,NE,45,10.0,18.0,51,0.00,,,0.00,Rainwise IP-100,2013-05-14 14:42:00,
2013-05-14 10:47:00,78.0,58.0,30.15,NE,45,17.0,17.0,50,0.00,,,0.00,Rainwise IP-100,2013-05-14 14:47:00,
2013-05-14 10:52:00,79.0,59.5,30.15,NE,45,12.0,21.0,51,0.00,,,0.00,Rainwise IP-100,2013-05-14 14:52:00,
2013-05-14 10:57:00,79.0,59.5,30.15,NE,45,16.0,22.0,51,0.00,,,0.00,Rainwise IP-100,2013-05-14 14:57:00,
2013-05-14 11:02:00,78.0,58.0,30.15,North,360,9.0,20.0,50,0.00,,,0.00,Rainwise IP-100,2013-05-14 15:02:00,
2013-05-14 11:07:00,79.0,59.5,30.16,NE,45,14.0,20.0,51,0.00,,,0.00,Rainwise IP-100,2013-05-14 15:07:00,
2013-05-14 11:12:00,79.0,59.0,30.15,NE,45,16.0,21.0,50,0.00,,,0.00,Rainwise IP-100,2013-05-14 15:12:00,
2013-05-14 11:18:00,79.0,59.5,30.15,NE,45,18.0,23.0,51,0.00,,,0.00,Rainwise IP-100,2013-05-14 15:18:00,
2013-05-14 11:23:00,79.0,59.0,30.15,North,360,15.0,19.0,50,0.00,,,0.00,Rainwise IP-100,2013-05-14 15:23:00,
2013-05-14 11:28:00,78.0,57.0,30.16,North,360,7.0,23.0,48,0.00,,,0.00,Rainwise IP-100,2013-05-14 15:28:00,
2013-05-14 11:33:00,79.0,57.0,30.16,North,360,8.0,17.0,47,0.00,,,0.00,Rainwise IP-100,2013-05-14 15:33:00,
2013-05-14 11:38:00,79.0,57.5,30.16,North,360,9.0,19.0,48,0.00,,,0.00,Rainwise IP-100,2013-05-14 15:38:00,
2013-05-14 11:43:00,79.0,59.0,30.16,NE,45,19.0,19.0,50,0.00,,,0.00,Rainwise IP-100,2013-05-14 15:43:00,
2013-05-14 11:48:00,79.0,56.5,30.15,NE,45,16.0,22.0,46,0.00,,,0.00,Rainwise IP-100,2013-05-14 15:48:00,
2013-05-14 11:54:00,79.0,59.5,30.16,North,360,7.0,21.0,51,0.00,,,0.00,Rainwise IP-100,2013-05-14 15:54:00,
2013-05-14 11:59:00,79.0,57.0,30.16,NNE,22,11.0,14.0,47,0.00,,,0.00,Rainwise IP-100,2013-05-14 15:59:00,
2013-05-14 12:04:00,80.0,58.0,30.15,NE,45,16.0,19.0,48,0.00,,,0.00,Rainwise IP-100,2013-05-14 16:04:00,
2013-05-14 12:09:00,79.0,57.0,30.15,NE,45,17.0,19.0,47,0.00,,,0.00,Rainwise IP-100,2013-05-14 16:09:00,
2013-05-14 12:14:00,79.0,59.0,30.15,NE,45,13.0,19.0,50,0.00,,,0.00,Rainwise IP-100,2013-05-14 16:14:00,
2013-05-14 12:19:00,79.0,56.5,30.16,North,360,13.0,19.0,46,0.00,,,0.00,Rainwise IP-100,2013-05-14 16:19:00,
2013-05-14 12:24:00,79.0,57.5,30.16,NE,45,7.0,19.0,48,0.00,,,0.00,Rainwise IP-100,2013-05-14 16:24:00,
2013-05-14 12:29:00,79.0,56.5,30.16,North,360,6.0,19.0,46,0.00,,,0.00,Rainwise IP-100,2013-05-14 16:29:00,
2013-05-14 12:35:00,79.0,56.5,30.16,NE,45,14.0,16.0,46,0.00,,,0.00,Rainwise IP-100,2013-05-14 16:35:00,
2013-05-14 12:40:00,79.0,57.5,30.16,NNE,22,8.0,17.0,48,0.00,,,0.00,Rainwise IP-100,2013-05-14 16:40:00,
2013-05-14 12:45:00,79.0,56.0,30.16,East,90,11.0,18.0,45,0.00,,,0.00,Rainwise IP-100,2013-05-14 16:45:00,
2013-05-14 12:47:00,75.0,60.0,30.23,NNW,337,5.8,18.0,59,0.00,,,0.00,Rainwise IP-100,2013-05-14 16:47:00,
2013-05-14 12:52:00,76.0,59.0,30.22,NNE,22,5.4,14.0,56,0.00,,,0.00,Rainwise IP-100,2013-05-14 16:52:00,
2013-05-14 12:57:00,77.4,59.0,30.23,NE,45,7.9,10.3,53,0.00,,,0.00,Rainwise IP-100,2013-05-14 16:57:00,
2013-05-14 13:02:00,77.8,59.0,30.23,NNE,22,10.7,15.2,52,0.00,,,0.00,Rainwise IP-100,2013-05-14 17:02:00,
2013-05-14 13:07:00,78.1,59.5,30.22,ENE,67,11.4,13.1,53,0.00,,,0.00,Rainwise IP-100,2013-05-14 17:07:00,
2013-05-14 13:13:00,78.3,60.0,30.23,ENE,67,8.4,14.9,53,0.00,,,0.00,Rainwise IP-100,2013-05-14 17:13:00,
2013-05-14 13:18:00,78.2,59.5,30.22,NE,45,9.3,13.5,52,0.00,,,0.00,Rainwise IP-100,2013-05-14 17:18:00,
2013-05-14 13:23:00,78.3,59.5,30.22,NE,45,15.6,16.3,52,0.00,,,0.00,Rainwise IP-100,2013-05-14 17:23:00,
2013-05-14 13:28:00,78.2,59.5,30.23,North,360,8.2,18.2,52,0.00,,,0.00,Rainwise IP-100,2013-05-14 17:28:00,
2013-05-14 13:33:00,78.1,59.0,30.23,NE,45,15.9,15.9,52,0.00,,,0.00,Rainwise IP-100,2013-05-14 17:33:00,
2013-05-14 13:38:00,78.4,59.5,30.22,NE,45,11.9,15.9,52,0.00,,,0.00,Rainwise IP-100,2013-05-14 17:38:00,
2013-05-14 13:43:00,78.0,59.0,30.22,NNE,22,9.3,18.7,52,0.00,,,0.00,Rainwise IP-100,2013-05-14 17:43:00,
2013-05-14 13:48:00,77.8,59.5,30.22,ENE,67,7.9,16.6,53,0.00,,,0.00,Rainwise IP-100,2013-05-14 17:48:00,
2013-05-14 13:54:00,77.8,59.0,30.22,ENE,67,9.3,17.3,52,0.00,,,0.00,Rainwise IP-100,2013-05-14 17:54:00,
2013-05-14 13:59:00,77.9,59.0,30.22,NE,45,10.0,18.0,52,0.00,,,0.00,Rainwise IP-100,2013-05-14 17:59:00,
2013-05-14 14:04:00,78.0,59.0,30.22,NNE,22,6.8,18.4,52,0.00,,,0.00,Rainwise IP-100,2013-05-14 18:04:00,
2013-05-14 14:09:00,78.1,59.5,30.21,NNE,22,7.0,18.7,53,0.00,,,0.00,Rainwise IP-100,2013-05-14 18:09:00,
2013-05-14 14:14:00,78.0,59.5,30.21,ENE,67,13.3,17.7,53,0.00,,,0.00,Rainwise IP-100,2013-05-14 18:14:00,
2013-05-14 14:19:00,78.0,59.5,30.21,NNE,22,6.8,16.1,53,0.00,,,0.00,Rainwise IP-100,2013-05-14 18:19:00,
2013-05-14 14:24:00,78.1,59.5,30.22,NNE,22,15.6,18.2,53,0.00,,,0.00,Rainwise IP-100,2013-05-14 18:24:00,
2013-05-14 14:30:00,78.3,59.5,30.22,NNE,22,10.5,17.0,52,0.00,,,0.00,Rainwise IP-100,2013-05-14 18:30:00,
2013-05-14 14:35:00,78.7,59.0,30.21,NNW,337,9.3,14.2,51,0.00,,,0.00,Rainwise IP-100,2013-05-14 18:35:00,
2013-05-14 14:40:00,78.7,59.0,30.21,North,360,6.8,14.9,51,0.00,,,0.00,Rainwise IP-100,2013-05-14 18:40:00,
2013-05-14 14:45:00,78.6,59.0,30.21,NNW,337,9.1,17.7,50,0.00,,,0.00,Rainwise IP-100,2013-05-14 18:45:00,
2013-05-14 14:50:00,73.0,56.5,30.15,NE,45,13.0,15.4,56,0.00,,,0.00,Rainwise IP-100,2013-05-14 18:50:00,
2013-05-14 14:55:00,76.0,56.5,30.12,NE,45,16.0,16.0,51,0.00,,,0.00,Rainwise IP-100,2013-05-14 18:55:00,
2013-05-14 15:00:00,78.0,58.0,30.12,NE,45,9.0,19.0,50,0.00,,,0.00,Rainwise IP-100,2013-05-14 19:00:00,
2013-05-14 15:06:00,78.0,57.0,30.12,NE,45,16.0,19.0,48,0.00,,,0.00,Rainwise IP-100,2013-05-14 19:06:00,
2013-05-14 15:11:00,79.0,59.0,30.12,NNE,22,12.0,17.0,50,0.00,,,0.00,Rainwise IP-100,2013-05-14 19:11:00,
2013-05-14 15:16:00,79.0,58.0,30.12,NNE,22,16.0,18.0,49,0.00,,,0.00,Rainwise IP-100,2013-05-14 19:16:00,
2013-05-14 15:21:00,79.0,59.0,30.12,NW,315,11.0,21.0,50,0.00,,,0.00,Rainwise IP-100,2013-05-14 19:21:00,
2013-05-14 15:26:00,79.0,57.5,30.12,NE,45,11.0,19.0,48,0.00,,,0.00,Rainwise IP-100,2013-05-14 19:26:00,
2013-05-14 15:31:00,79.0,59.0,30.12,NE,45,5.0,20.0,50,0.00,,,0.00,Rainwise IP-100,2013-05-14 19:31:00,
2013-05-14 15:36:00,79.0,57.5,30.12,NE,45,10.0,19.0,48,0.00,,,0.00,Rainwise IP-100,2013-05-14 19:36:00,
2013-05-14 15:41:00,79.0,58.0,30.12,NE,45,9.0,21.0,49,0.00,,,0.00,Rainwise IP-100,2013-05-14 19:41:00,
2013-05-14 15:47:00,79.0,59.0,30.12,NE,45,14.0,21.0,50,0.00,,,0.00,Rainwise IP-100,2013-05-14 19:47:00,
2013-05-14 15:52:00,79.0,58.0,30.12,NE,45,12.0,19.0,49,0.00,,,0.00,Rainwise IP-100,2013-05-14 19:52:00,
2013-05-14 15:57:00,79.0,57.5,30.12,NNE,22,12.0,20.0,48,0.00,,,0.00,Rainwise IP-100,2013-05-14 19:57:00,
2013-05-14 16:02:00,79.0,57.0,30.12,NE,45,7.0,17.0,47,0.00,,,0.00,Rainwise IP-100,2013-05-14 20:02:00,
2013-05-14 16:07:00,78.0,57.0,30.12,North,360,15.0,17.0,48,0.00,,,0.00,Rainwise IP-100,2013-05-14 20:07:00,
2013-05-14 16:12:00,79.0,57.5,30.11,NE,45,15.0,18.0,48,0.00,,,0.00,Rainwise IP-100,2013-05-14 20:12:00,
2013-05-14 16:17:00,79.0,56.0,30.12,North,360,13.0,17.0,45,0.00,,,0.00,Rainwise IP-100,2013-05-14 20:17:00,
2013-05-14 16:23:00,79.0,57.5,30.12,NNE,22,9.0,15.0,48,0.00,,,0.00,Rainwise IP-100,2013-05-14 20:23:00,
2013-05-14 16:28:00,79.0,56.5,30.12,NNE,22,12.0,17.0,46,0.00,,,0.00,Rainwise IP-100,2013-05-14 20:28:00,
2013-05-14 16:33:00,78.0,57.0,30.12,North,360,12.0,17.0,48,0.00,,,0.00,Rainwise IP-100,2013-05-14 20:33:00,
2013-05-14 16:38:00,79.0,56.5,30.12,North,360,13.0,20.0,46,0.00,,,0.00,Rainwise IP-100,2013-05-14 20:38:00,
2013-05-14 16:43:00,79.0,57.5,30.12,NE,45,17.0,20.0,48,0.00,,,0.00,Rainwise IP-100,2013-05-14 20:43:00,
2013-05-14 16:48:00,79.0,57.5,30.12,NE,45,16.0,18.0,48,0.00,,,0.00,Rainwise IP-100,2013-05-14 20:48:00,
2013-05-14 16:53:00,79.0,57.5,30.12,NE,45,14.0,19.0,48,0.00,,,0.00,Rainwise IP-100,2013-05-14 20:53:00,
2013-05-14 16:58:00,78.0,58.0,30.12,North,360,10.0,19.0,51,0.00,,,0.00,Rainwise IP-100,2013-05-14 20:58:00,
2013-05-14 17:04:00,78.0,57.0,30.12,NE,45,15.0,18.0,48,0.00,,,0.00,Rainwise IP-100,2013-05-14 21:04:00,
2013-05-14 17:09:00,78.0,57.0,30.12,NW,315,10.0,17.0,48,0.00,,,0.00,Rainwise IP-100,2013-05-14 21:09:00,
2013-05-14 17:14:00,79.0,59.0,30.12,NE,45,16.0,17.0,50,0.00,,,0.00,Rainwise IP-100,2013-05-14 21:14:00,
2013-05-14 17:19:00,79.0,56.0,30.12,North,360,10.0,19.0,45,0.00,,,0.00,Rainwise IP-100,2013-05-14 21:19:00,
2013-05-14 17:24:00,78.0,55.0,30.12,NE,45,9.0,14.0,45,0.00,,,0.00,Rainwise IP-100,2013-05-14 21:24:00,
2013-05-14 17:29:00,79.0,56.5,30.12,NE,45,10.0,14.0,46,0.00,,,0.00,Rainwise IP-100,2013-05-14 21:29:00,
2013-05-14 17:34:00,79.0,55.0,30.12,ENE,67,12.0,19.0,44,0.00,,,0.00,Rainwise IP-100,2013-05-14 21:34:00,
2013-05-14 17:40:00,79.0,57.0,30.12,NE,45,12.0,19.0,47,0.00,,,0.00,Rainwise IP-100,2013-05-14 21:40:00,
2013-05-14 17:45:00,78.0,56.0,30.12,North,360,12.0,17.0,46,0.00,,,0.00,Rainwise IP-100,2013-05-14 21:45:00,
2013-05-14 17:50:00,78.0,57.0,30.12,NE,45,16.0,19.0,48,0.00,,,0.00,Rainwise IP-100,2013-05-14 21:50:00,
2013-05-14 17:55:00,78.0,59.0,30.12,North,360,9.0,19.0,52,0.00,,,0.00,Rainwise IP-100,2013-05-14 21:55:00,
2013-05-14 18:00:00,77.0,57.0,30.11,NE,45,16.0,16.0,50,0.00,,,0.00,Rainwise IP-100,2013-05-14 22:00:00,
2013-05-14 18:05:00,77.0,57.0,30.11,ENE,67,7.0,18.0,50,0.00,,,0.00,Rainwise IP-100,2013-05-14 22:05:00,
2013-05-14 18:10:00,77.0,56.0,30.11,NE,45,12.0,16.0,48,0.00,,,0.00,Rainwise IP-100,2013-05-14 22:10:00,
2013-05-14 18:15:00,77.0,54.5,30.11,NE,45,9.0,17.0,46,0.00,,,0.00,Rainwise IP-100,2013-05-14 22:15:00,
2013-05-14 18:21:00,78.0,57.0,30.11,NE,45,13.0,18.0,48,0.00,,,0.00,Rainwise IP-100,2013-05-14 22:21:00,
2013-05-14 18:26:00,78.0,56.5,30.10,NW,315,13.0,18.0,47,0.00,,,0.00,Rainwise IP-100,2013-05-14 22:26:00,
2013-05-14 18:31:00,77.0,56.5,30.11,NE,45,11.0,19.0,49,0.00,,,0.00,Rainwise IP-100,2013-05-14 22:31:00,
2013-05-14 18:36:00,77.0,57.0,30.11,NE,45,12.0,17.0,50,0.00,,,0.00,Rainwise IP-100,2013-05-14 22:36:00,
2013-05-14 18:41:00,77.0,57.0,30.11,NE,45,11.0,18.0,50,0.00,,,0.00,Rainwise IP-100,2013-05-14 22:41:00,
2013-05-14 18:46:00,77.0,54.5,30.11,East,90,10.0,16.0,46,0.00,,,0.00,Rainwise IP-100,2013-05-14 22:46:00,
2013-05-14 18:51:00,77.0,54.5,30.11,NE,45,15.0,17.0,46,0.00,,,0.00,Rainwise IP-100,2013-05-14 22:51:00,
2013-05-14 18:57:00,77.0,54.5,30.11,North,360,9.0,16.0,46,0.00,,,0.00,Rainwise IP-100,2013-05-14 22:57:00,
2013-05-14 19:02:00,77.0,55.0,30.11,North,360,7.0,15.0,47,0.00,,,0.00,Rainwise IP-100,2013-05-14 23:02:00,
2013-05-14 19:07:00,77.0,54.0,30.11,NE,45,10.0,15.0,45,0.00,,,0.00,Rainwise IP-100,2013-05-14 23:07:00,
2013-05-14 19:12:00,77.0,56.0,30.11,NE,45,8.0,16.0,48,0.00,,,0.00,Rainwise IP-100,2013-05-14 23:12:00,
2013-05-14 19:17:00,76.0,54.5,30.11,NNW,337,10.0,16.0,48,0.00,,,0.00,Rainwise IP-100,2013-05-14 23:17:00,
2013-05-14 19:22:00,76.0,56.0,30.11,North,360,4.0,13.0,50,0.00,,,0.00,Rainwise IP-100,2013-05-14 23:22:00,
2013-05-14 19:27:00,76.0,56.0,30.11,North,360,8.0,13.0,50,0.00,,,0.00,Rainwise IP-100,2013-05-14 23:27:00,
2013-05-14 19:32:00,76.0,56.0,30.11,North,360,4.0,13.0,50,0.00,,,0.00,Rainwise IP-100,2013-05-14 23:32:00,
2013-05-14 19:37:00,76.0,57.5,30.10,NE,45,12.0,17.0,53,0.00,,,0.00,Rainwise IP-100,2013-05-14 23:37:00,
2013-05-14 19:43:00,75.0,55.0,30.11,North,360,8.0,16.0,50,0.00,,,0.00,Rainwise IP-100,2013-05-14 23:43:00,
2013-05-14 19:48:00,75.0,56.0,30.11,North,360,13.0,15.0,51,0.00,,,0.00,Rainwise IP-100,2013-05-14 23:48:00,
2013-05-14 19:53:00,75.0,56.5,30.11,North,360,7.0,17.0,52,0.00,,,0.00,Rainwise IP-100,2013-05-14 23:53:00,
2013-05-14 19:58:00,75.0,57.5,30.10,NE,45,9.0,14.0,55,0.00,,,0.00,Rainwise IP-100,2013-05-14 23:58:00,
2013-05-14 20:03:00,75.0,57.0,30.10,NE,45,10.0,19.0,53,0.00,,,0.00,Rainwise IP-100,2013-05-15 00:03:00,
2013-05-14 20:08:00,74.0,56.0,30.10,NE,45,9.0,16.0,53,0.00,,,0.00,Rainwise IP-100,2013-05-15 00:08:00,
2013-05-14 20:13:00,74.0,54.5,30.10,NE,45,13.0,18.0,51,0.00,,,0.00,Rainwise IP-100,2013-05-15 00:13:00,
2013-05-14 20:19:00,74.0,55.0,30.10,NNE,22,9.0,16.0,52,0.00,,,0.00,Rainwise IP-100,2013-05-15 00:19:00,
2013-05-14 20:24:00,74.0,55.0,30.11,North,360,8.0,13.0,52,0.00,,,0.00,Rainwise IP-100,2013-05-15 00:24:00,
2013-05-14 20:29:00,74.0,56.5,30.11,North,360,6.0,15.0,54,0.00,,,0.00,Rainwise IP-100,2013-05-15 00:29:00,
2013-05-14 20:34:00,74.0,56.5,30.10,NE,45,9.0,17.0,54,0.00,,,0.00,Rainwise IP-100,2013-05-15 00:34:00,
2013-05-14 20:39:00,74.0,56.0,30.10,NE,45,16.0,17.0,53,0.00,,,0.00,Rainwise IP-100,2013-05-15 00:39:00,
2013-05-14 20:44:00,74.0,56.0,30.11,NE,45,15.0,20.0,53,0.00,,,0.00,Rainwise IP-100,2013-05-15 00:44:00,
2013-05-14 20:49:00,74.0,56.0,30.11,NE,45,6.0,20.0,53,0.00,,,0.00,Rainwise IP-100,2013-05-15 00:49:00,
2013-05-14 20:54:00,74.0,54.5,30.11,NE,45,10.0,16.0,51,0.00,,,0.00,Rainwise IP-100,2013-05-15 00:54:00,
2013-05-14 21:00:00,74.0,54.5,30.11,NNE,22,8.0,15.0,51,0.00,,,0.00,Rainwise IP-100,2013-05-15 01:00:00,
2013-05-14 21:05:00,74.0,56.0,30.11,NE,45,10.0,15.0,53,0.00,,,0.00,Rainwise IP-100,2013-05-15 01:05:00,
2013-05-14 21:10:00,74.0,54.5,30.11,NE,45,8.0,15.0,51,0.00,,,0.00,Rainwise IP-100,2013-05-15 01:10:00,
2013-05-14 21:15:00,74.0,55.0,30.12,NE,45,7.0,16.0,52,0.00,,,0.00,Rainwise IP-100,2013-05-15 01:15:00,
2013-05-14 21:20:00,74.0,57.0,30.12,North,360,7.0,15.0,55,0.00,,,0.00,Rainwise IP-100,2013-05-15 01:20:00,
2013-05-14 21:25:00,74.0,57.0,30.12,North,360,9.0,12.0,55,0.00,,,0.00,Rainwise IP-100,2013-05-15 01:25:00,
2013-05-14 21:30:00,74.0,55.0,30.12,NE,45,8.0,17.0,52,0.00,,,0.00,Rainwise IP-100,2013-05-15 01:30:00,
2013-05-14 21:36:00,74.0,56.5,30.12,NE,45,10.0,13.0,54,0.00,,,0.00,Rainwise IP-100,2013-05-15 01:36:00,
2013-05-14 21:41:00,74.0,57.5,30.12,NE,45,11.0,12.0,56,0.00,,,0.00,Rainwise IP-100,2013-05-15 01:41:00,
2013-05-14 21:46:00,74.0,54.5,30.12,NE,45,10.0,16.0,51,0.00,,,0.00,Rainwise IP-100,2013-05-15 01:46:00,
2013-05-14 21:51:00,74.0,56.0,30.12,NE,45,10.0,15.0,53,0.00,,,0.00,Rainwise IP-100,2013-05-15 01:51:00,
2013-05-14 21:56:00,74.0,56.5,30.12,NE,45,6.0,13.0,54,0.00,,,0.00,Rainwise IP-100,2013-05-15 01:56:00,
2013-05-14 22:01:00,74.0,57.0,30.13,North,360,6.0,15.0,55,0.00,,,0.00,Rainwise IP-100,2013-05-15 02:01:00,
2013-05-14 22:06:00,74.0,57.0,30.13,NE,45,8.0,16.0,55,0.00,,,0.00,Rainwise IP-100,2013-05-15 02:06:00,
2013-05-14 22:11:00,74.0,56.5,30.13,NE,45,11.0,15.0,54,0.00,,,0.00,Rainwise IP-100,2013-05-15 02:11:00,
2013-05-14 22:17:00,74.0,57.0,30.13,NE,45,14.0,14.0,55,0.00,,,0.00,Rainwise IP-100,2013-05-15 02:17:00,
2013-05-14 22:22:00,74.0,56.0,30.13,NNE,22,11.0,16.0,53,0.00,,,0.00,Rainwise IP-100,2013-05-15 02:22:00,
2013-05-14 22:27:00,74.0,56.0,30.13,NE,45,10.0,16.0,53,0.00,,,0.00,Rainwise IP-100,2013-05-15 02:27:00,
2013-05-14 22:32:00,74.0,57.0,30.14,NNE,22,9.0,13.0,55,0.00,,,0.00,Rainwise IP-100,2013-05-15 02:32:00,
2013-05-14 22:37:00,74.0,57.5,30.14,NE,45,13.0,16.0,56,0.00,,,0.00,Rainwise IP-100,2013-05-15 02:37:00,
2013-05-14 22:42:00,74.0,57.5,30.14,NE,45,12.0,14.0,57,0.00,,,0.00,Rainwise IP-100,2013-05-15 02:42:00,
2013-05-14 22:47:00,74.0,57.0,30.14,NE,45,14.0,16.0,55,0.00,,,0.00,Rainwise IP-100,2013-05-15 02:47:00,
2013-05-14 22:53:00,74.0,57.5,30.14,NE,45,8.0,19.0,56,0.00,,,0.00,Rainwise IP-100,2013-05-15 02:53:00,
2013-05-14 22:58:00,74.0,57.0,30.14,NNE,22,10.0,15.0,55,0.00,,,0.00,Rainwise IP-100,2013-05-15 02:58:00,
2013-05-14 23:03:00,74.0,57.5,30.14,NNE,22,15.0,16.0,56,0.00,,,0.00,Rainwise IP-100,2013-05-15 03:03:00,
2013-05-14 23:08:00,74.0,56.0,30.14,ENE,67,4.0,19.0,53,0.00,,,0.00,Rainwise IP-100,2013-05-15 03:08:00,
2013-05-14 23:13:00,74.0,57.0,30.14,NE,45,11.0,16.0,55,0.00,,,0.00,Rainwise IP-100,2013-05-15 03:13:00,
2013-05-14 23:18:00,74.0,56.5,30.14,ENE,67,12.0,19.0,54,0.00,,,0.00,Rainwise IP-100,2013-05-15 03:18:00,
2013-05-14 23:23:00,74.0,57.0,30.14,NE,45,11.0,18.0,55,0.00,,,0.00,Rainwise IP-100,2013-05-15 03:23:00,
2013-05-14 23:28:00,74.0,56.0,30.14,NE,45,8.0,17.0,53,0.00,,,0.00,Rainwise IP-100,2013-05-15 03:28:00,
2013-05-14 23:34:00,74.0,56.5,30.14,NE,45,13.0,16.0,54,0.00,,,0.00,Rainwise IP-100,2013-05-15 03:34:00,
2013-05-14 23:39:00,74.0,57.0,30.14,NE,45,14.0,16.0,55,0.00,,,0.00,Rainwise IP-100,2013-05-15 03:39:00,
2013-05-14 23:44:00,74.0,56.0,30.14,NE,45,13.0,15.0,53,0.00,,,0.00,Rainwise IP-100,2013-05-15 03:44:00,
2013-05-14 23:49:00,74.0,56.5,30.14,NE,45,9.0,19.0,54,0.00,,,0.00,Rainwise IP-100,2013-05-15 03:49:00,
2013-05-14 23:54:00,74.0,54.5,30.15,NE,45,7.0,15.0,51,0.00,,,0.00,Rainwise IP-100,2013-05-15 03:54:00,
2013-05-14 23:59:00,74.0,56.0,30.14,ENE,67,9.0,16.0,53,0.00,,,0.00,Rainwise IP-100,2013-05-15 03:59:00,